Location: Cave
(41.8160°N, 12.9350°E)
Time: 00:40:13
(UTC+02:00)

ISS - Pass Details

Date: 29 June 2019
Orbit: 409 x 418 km, 51.6° (Epoch: 20 July)

Event Time Altitude Azimuth Distance (km) Brightness Sun altitude
Exits shadow 04:12:03 - 164° (SSE) 1,660 -1.0 -12.7°
Reaches altitude 10° 04:13:05 10° 149° (SSE) 1,469 -1.2 -12.6°
Maximum altitude 04:14:10 11° 129° (SE) 1,395 -1.1 -12.5°
Drops below altitude 10° 04:15:15 10° 110° (ESE) 1,471 -0.7 -12.3°
Sets 04:18:33 0° 74° (ENE) 2,337 1.1 -11.9°
